Miscellaneous Local Product
Issued by NWS Hastings, NE

Home | Current Version | Previous Version | Graphics & Text | Print | Product List | Glossary On
Versions: 1 2 3 4 5 6 7 8 9 10 11 12 13 14 15 16 17 18 19 20 21 22 23 24 25 26 27 28 29 30 31 32 33 34 35 36 37 38 39 40 41 42 43 44 45 46 47 48 49 50
470
AXUS43 KGID 231402
MISGRI

GID CWA HOURLY WEATHER ROUNDUP
NATIONAL WEATHER SERVICE HASTINGS NE
900 AM CDT TUE MAY 23 2017

NOTE: "FAIR" INDICATES FEW OR NO CLOUDS BELOW 12,000 FEET WITH NO
SIGNIFICANT WEATHER AND/OR OBSTRUCTIONS TO VISIBILITY.

...SOUTH CENTRAL NEBRASKA...

CITY           SKY/WX    TMP DP  RH WIND       PRES   REMARKS
GRAND ISLAND   CLOUDY    51  46  83 W14       29.97F
HASTINGS       CLOUDY    50  45  83 W13       29.98F
KEARNEY        CLOUDY    52  43  71 W13       29.99F
ORD            CLOUDY    53  44  71 NW17G25   29.96S
YORK           CLOUDY    50  45  81 NW12      29.96S
AURORA         CLOUDY    51  45  82 NW9       29.96S
LEXINGTON      CLOUDY    50  45  82 NW16G22   30.02F
HOLDREGE       CLOUDY    50  44  81 NW12G17   30.01S
HEBRON         SUNNY     55  47  75 NW7       29.97S

...NEBRASKA PANHANDLE...

CITY           SKY/WX    TMP DP  RH WIND       PRES   REMARKS
CHADRON        CLOUDY    47  39  74 NW10      30.16R
ALLIANCE       CLOUDY    47  40  76 NW16      30.13R
SCOTTSBLUFF    CLOUDY    46  40  79 W9        30.17S
SIDNEY         CLOUDY    47  41  80 NW15      30.16S

...WESTERN AND NORTH CENTRAL NEBRASKA...

CITY           SKY/WX    TMP DP  RH WIND       PRES   REMARKS
VALENTINE      MOSUNNY   51  38  60 NW21G28   30.06R
AINSWORTH      CLOUDY    48  41  76 N18       30.03S
ONEILL         CLOUDY    52  41  65 N17G28    29.97S
BROKEN BOW     CLOUDY    52  44  74 NW21G26   30.00R
IMPERIAL       CLOUDY    48  39  71 NW16G24   30.11R
NORTH PLATTE   CLOUDY    50  47  89 NW12      30.06S
MCCOOK         CLOUDY    51  44  77 NW16      30.06S

...EASTERN NEBRASKA...

CITY           SKY/WX    TMP DP  RH WIND       PRES   REMARKS
NORFOLK        CLOUDY    50  44  80 NW8       29.91F
SO SIOUX CITY  CLOUDY    51  46  83 NW14      29.90F
TEKAMAH        LGT RAIN  51  45  79 NW10      29.91S
ALBION         CLOUDY    53  46  75 NW13      29.94F
OMAHA EPPLEY   PTSUNNY   55  43  63 NW10      29.91F
OFFUTT AFB     MOSUNNY   55  44  66 NW10      29.90F
MILLARD        PTSUNNY   55  45  67 NW9       29.92S
LINCOLN        MOSUNNY   57  44  62 NW10      29.94F
NEBRASKA CITY  SUNNY     55  42  63 N14       29.92S
BEATRICE         N/A     56  47  72 N10       29.95S
FALLS CITY     SUNNY     56  47  71 NW10      29.91S

...NORTHERN KANSAS...

CITY           SKY/WX    TMP DP  RH WIND       PRES   REMARKS
GOODLAND       SUNNY     49  42  77 NW16      30.12S
HILL CITY      SUNNY     53  45  74 NW10      30.06F
HAYS           SUNNY     54  45  71 NW12      30.05F
RUSSELL        SUNNY     53  46  77 NW16      30.02S
CONCORDIA      SUNNY     54  48  80 NW8       29.99R
SALINA         SUNNY     58  49  72 NW17      29.97F
TOPEKA         CLOUDY    55  51  86 NW5       29.92S



USA.gov is the U.S. government's official web portal to all federal, state and local government web resources and services.